Weather History for KLSV - January, 2014

Change the Weather History Date:

Sunday, January 12, 2014

  Actual Average Record
Temperature  
Mean Temperature 50 °F -  
Max Temperature 62 °F 57 °F 68 °F (1999)
Min Temperature 37 °F 34 °F 26 °F (2007)
Degree Days  
Heating Degree Days 16    
Moisture  
Dew Point 19 °F    
Average Humidity 33    
Maximum Humidity 64    
Minimum Humidity 12    
Precipitation  
Precipitation 0.00 in - - ()
Sea Level Pressure  
Sea Level Pressure 30.16 in    
Wind  
Wind Speed 5 mph (NE)    
Max Wind Speed 14 mph    
Max Gust Speed -    
Visibility 10 miles    
Events      
Averages and records for this station are not official NWS values.
T = Trace of Precipitation, MM = Missing Value Source: NWS Daily Summary

Daily Weather History Graph

Daily Weather History Graph

Search for Another Location

Airport or City:

Trip Planner

Search our weather history database for the weather conditions in past years. The results will help you decide how hot, cold, wet, or windy it might be!

Date:

Astronomy

Jan. 12, 2014 Rise Set
Actual Time 6:51 AM PST 4:46 PM PST
Civil Twilight 6:23 AM PST 5:14 PM PST
Nautical Twilight 5:51 AM PST 5:45 PM PST
Astronomical Twilight 5:20 AM PST 6:16 PM PST
Moon 2:16 PM PST (1/12) 3:54 AM PST (1/12)
Length of Visible Light 10h 51m
Length of Day
9h 54m
Waxing Gibbous, 90% of the Moon is Illuminated
Jan 12
Waxing Gibbous
Jan 15
Full
Jan 23
Last Quarter
Jan 30
New
Feb 6
First Quarter

Hourly Weather History & Observations

Time (PST) Temp. Windchill Dew Point Humidity Pressure Visibility Wind Dir Wind Speed Gust Speed Precip Events Conditions
12:58 AM 45.3 °F - 28.2 °F 51% 29.95 in 10.0 mi North 2.3 mph - N/A   Clear
1:58 AM 43.9 °F - 28.4 °F 55% 29.95 in 10.0 mi NW 2.3 mph - N/A   Clear
2:58 AM 41.0 °F - 27.7 °F 59% 29.98 in 10.0 mi West 1.2 mph - N/A   Clear
3:58 AM 37.9 °F 31.5 °F 26.8 °F 64% 29.99 in 10.0 mi NE 9.2 mph - N/A   Clear
4:58 AM 45.1 °F 43.7 °F 27.7 °F 50% 30.02 in 10.0 mi ENE 3.5 mph - N/A   Clear
5:58 AM 41.0 °F - 27.5 °F 59% 30.07 in 10.0 mi North 1.2 mph - N/A   Clear
6:58 AM 41.2 °F 37.3 °F 27.3 °F 58% 30.09 in 10.0 mi NNE 5.8 mph - N/A   Clear
7:58 AM 44.2 °F - 28.0 °F 53% 30.12 in 10.0 mi ENE 2.3 mph - N/A   Clear
8:58 AM 49.3 °F - 30.2 °F 48% 30.16 in 10.0 mi NE 2.3 mph - N/A   Clear
9:58 AM 57.9 °F - 25.3 °F 29% 30.16 in 10.0 mi ENE 8.1 mph - N/A   Clear
10:58 AM 60.1 °F - 20.1 °F 21% 30.17 in 10.0 mi NE 11.5 mph - N/A   Clear
11:58 AM 61.7 °F - 17.4 °F 18% 30.15 in 10.0 mi NE 10.4 mph - N/A   Clear
12:58 PM 62.2 °F - 14.4 °F 16% 30.14 in 10.0 mi NE 10.4 mph - N/A   Clear
1:58 PM 62.8 °F - 11.5 °F 13% 30.15 in 10.0 mi ENE 13.8 mph - N/A   Clear
2:58 PM 62.8 °F - 8.4 °F 12% 30.19 in 10.0 mi ENE 10.4 mph - N/A   Clear
3:58 PM 61.7 °F - 8.8 °F 12% 30.21 in 10.0 mi NE 9.2 mph - N/A   Clear
4:58 PM 57.2 °F - 10.4 °F 16% 30.22 in 10.0 mi East 5.8 mph - N/A   Clear
5:58 PM 51.4 °F - 10.4 °F 19% 30.27 in 10.0 mi ENE 8.1 mph - N/A   Clear
6:58 PM 49.8 °F - 10.9 °F 21% 30.28 in 10.0 mi NE 4.6 mph - N/A   Clear
7:58 PM 49.6 °F - 10.2 °F 20% 30.30 in 10.0 mi Variable 3.5 mph - N/A   Clear
8:58 PM 48.6 °F - 10.4 °F 21% 30.33 in 10.0 mi NE 8.1 mph - N/A   Clear
9:58 PM 53.1 °F - 10.6 °F 18% 30.32 in 10.0 mi NE 5.8 mph - N/A   Clear
10:58 PM 47.7 °F - 10.9 °F 23% 30.35 in 10.0 mi Variable 1.2 mph - N/A   Clear
11:58 PM 49.1 °F - 13.1 °F 24% 30.36 in 10.0 mi NE 5.8 mph - N/A   Clear